Regional Weather Roundup
Issued by NWS Green Bay, WI

Home | Current Version | Previous Version | Text Only | Print | Product List | Glossary On
Versions: 1 2 3 4 5 6 7 8 9 10 11 12 13 14 15 16 17 18 19 20 21 22 23 24 25 26 27 28 29 30 31 32 33 34 35 36 37 38 39 40 41 42 43 44 45 46 47 48 49 50
000
ASUS43 KGRB 200600
RWRGRB

NORTH-CENTRAL AND NORTHEAST WISCONSIN REGIONAL WEATHER ROUNDUP
NATIONAL WEATHER SERVICE GREEN BAY WI
1200 AM CST TUE FEB 20 2018

WIZ005-009-010>012-018-019-200700-
NORTH CENTRAL WISCONSIN

CITY           SKY/WX    TMP DP  RH WIND       PRES   REMARKS
IRONWOOD       LGT SNOW  16  14  92 NE7       29.95F FOG     WCI   6
MANITOWISH WTR NOT AVBL
ARBOR VITAE    NOT AVBL
EAGLE RIVER    CLOUDY    20  19  98 NE10      29.85F FOG     WCI   9
LAND O LAKES   NOT AVBL
RHINELANDER    CLOUDY    21  20  96 NE7       29.85F FOG
PHILLIPS       NOT AVBL
ANTIGO         NOT AVBL
TOMAHAWK       NOT AVBL
MERRILL        NOT AVBL
$$

WIZ013-073-200700-
NORTHEAST WISCONSIN

CITY           SKY/WX    TMP DP  RH WIND       PRES   REMARKS
IRON MOUNTAIN  CLOUDY    24  21  88 NE7       29.86F FOG
MARINETTE      CLOUDY    30  28  92 NE12      29.87S FOG
$$

WIZ017-030-035>037-045-200700-
CENTRAL WISCONSIN

CITY           SKY/WX    TMP DP  RH WIND       PRES   REMARKS
MEDFORD        NOT AVBL
WAUSAU         CLOUDY    26  25  96 NE7       29.81F FOG
MOSINEE        NOT AVBL
MARSHFIELD     CLOUDY    26  25  96 NE9       29.79F FOG
WISC RAPIDS    CLOUDY    27  24  89 NE8       29.81F FOG
STEVENS POINT  NOT AVBL
WAUPACA        NOT AVBL
SHAWANO        CLOUDY    29  27  92 NE7       29.84F FOG
CLINTONVILLE   CLOUDY    28  26  94 NE8       29.84S FOG
WAUTOMA        CLOUDY    29  28  96 NE6       29.82R FOG
$$

WIZ038-039-048-051-200700-
FOX VALLEY

CITY           SKY/WX    TMP DP  RH WIND       PRES   REMARKS
NWS GREEN BAY  CLOUDY    29  27  92 NE12      29.83S FOG
APPLETON       NOT AVBL
OSHKOSH        FRZ RAIN  30  29  96 NE8       29.80S FOG
FOND DU LAC    LGT RAIN  34  31  88 N7        29.80R FOG
$$

WIZ022-050-052-200700-
EAST CENTRAL WISCONSIN

CITY           SKY/WX    TMP DP  RH WIND       PRES   REMARKS
EPHRAIM        NOT AVBL
WASHINGTON ISL NOT AVBL
STURGEON BAY   CLOUDY    33  31  92 NE7       29.83F FOG
MANITOWOC      MIX PCPN  34  34 100 N7        29.81S FOG
SHEBOYGAN      LGT RAIN  35  35 100 N7        29.78S VSB 1/2
$$

LMZ563-521-522-541>543-200700-
LAKESHORE

STATION/POSITION TIME  TEMP    WIND        PRES    VSBY  WAVE
                       AIR SEA DIR/SP/G                  HT/PER
                 (UTC) (F)     (DEG/KT/KT) (MB)    (MI)  (FT/S)
SHEBOYGAN LKSHOR 0500   34     350/ 11/ 12 1009.2F
KEWAUNEE LKSHORE 0524   34      30/  8/ 13 1008.5
NORTHPORT PIER   0540   33                 1010.8F
SISTER BAY LKSHO 0520   33      90/  8/ 15   N/A
MENOMINEE LKSHOR 0524   28      10/ 21/ 24 1010.6
$$




USA.gov is the U.S. government's official web portal to all federal, state and local government web resources and services.